This demonstration page uses our WeatherBlox Daily Observations layout. Learn more.

Left ArrowRight Arrow

39.51506, -84.39828

Hourly Observations for May 6, 2019

Temp ( °F °C ) Dew Point ( °F °C ) Humidity (%) Winds ( mph kmh ) Pressure ( in mb ) Visibility ( mi km ) Precip ( " mm )
12:15 am 00:15 Clear 49 9.6 47 8.4 92 92 N N/A 29.97 1015 10 16 N/A
12:35 am 00:35 Clear 50 9.9 47 8.5 91 91 N N/A 29.98 1015 10 16 N/A
12:55 am 00:55 Clear 49 9.5 47 8.1 91 91 N N/A 29.98 1015 10 16 N/A
1:15 am 01:15 Clear 49 9.2 46 8 92 92 N N/A 29.98 1015 10 16 N/A
1:35 am 01:35 Clear 48 8.9 46 7.8 93 93 N N/A 29.98 1015 10 16 N/A
1:55 am 01:55 Clear 48 9 47 8.4 96 96 N N/A 29.98 1015 10 16 N/A
2:15 am 02:15 Clear 47 8.4 46 8 97 97 N N/A 29.98 1015 10 16 N/A
2:35 am 02:35 Clear 47 8.6 46 8 96 96 N N/A 29.99 1016 10 16 N/A
2:55 am 02:55 Clear 47 8.4 46 7.8 96 96 N N/A 30.00 1016 10 16 N/A
3:15 am 03:15 Clear 47 8.3 46 7.7 96 96 N N/A 29.99 1016 10 16 N/A
3:35 am 03:35 Clear 46 7.9 45 7.2 95 95 N N/A 29.99 1016 10 16 N/A
3:55 am 03:55 Clear 46 8 46 7.5 97 97 N N/A 29.99 1016 10 16 N/A
4:15 am 04:15 Clear 46 7.9 46 7.5 97 97 N N/A 29.99 1016 10 16 N/A
4:35 am 04:35 Clear 46 7.8 45 7.4 97 97 N N/A 30.00 1016 10 16 N/A
4:55 am 04:55 Clear 46 7.5 45 7.1 97 97 N N/A 30.02 1016 10 16 N/A
5:15 am 05:15 Clear 45 7.4 45 7.2 99 99 N N/A 30.02 1016 7 11 N/A
5:35 am 05:35 Clear with Mist and Fog 45 7.1 44 6.9 99 99 N N/A 30.04 1017 2 3 N/A
5:55 am 05:55 Clear 45 7.3 45 7.1 99 99 N N/A 30.03 1017 10 16 N/A
6:15 am 06:15 Clear 45 7.2 45 7 99 99 N N/A 30.05 1017 10 16 N/A
6:35 am 06:35 Sunny with Mist and Fog 45 7.1 44 6.9 99 99 N N/A 30.06 1018 2 3 N/A
6:55 am 06:55 Mostly Cloudy with Fog 45 7.1 45 7 99 99 N N/A 30.07 1018 0 0 N/A
7:15 am 07:15 Sunny with Mist and Fog 45 7.3 45 7.2 99 99 N N/A 30.07 1018 5 8 N/A
7:35 am 07:35 Sunny 47 8.4 47 8.3 99 99 N N/A 30.07 1018 7 11 N/A
7:55 am 07:55 Sunny 49 9.2 48 8.9 98 98 N N/A 30.07 1018 10 16 N/A
8:15 am 08:15 Sunny 50 10.2 49 9.6 96 96 N N/A 30.07 1018 10 16 N/A
8:35 am 08:35 Sunny 53 11.6 51 10.3 92 92 N N/A 30.07 1018 10 16 N/A
8:55 am 08:55 Sunny 55 13 52 11.1 88 88 W 3 6 30.08 1019 10 16 N/A
9:15 am 09:15 Sunny 58 14.6 52 11.1 80 80 SW 7 11 30.08 1019 10 16 N/A
9:35 am 09:35 Sunny 60 15.7 52 11.2 75 75 SW 5 7 30.07 1018 10 16 N/A
9:55 am 09:55 Sunny 62 16.8 52 11.1 69 69 SW 6 9 30.07 1018 10 16 N/A
10:15 am 10:15 Sunny 64 17.8 53 11.8 68 68 SW 6 9 30.08 1019 10 16 N/A
10:35 am 10:35 Sunny 65 18.2 53 11.8 66 66 WSW 8 13 30.08 1019 10 16 N/A
10:55 am 10:55 Sunny 67 19.2 53 11.4 61 61 SW 8 13 30.08 1019 10 16 N/A
11:15 am 11:15 Sunny 68 20 53 11.8 59 59 SW 7 11 30.07 1018 10 16 N/A
11:35 am 11:35 Sunny 69 20.3 53 11.9 59 59 SW 7 11 30.07 1018 10 16 N/A
11:55 am 11:55 Sunny 70 21 51 10.5 51 51 SW 7 11 30.07 1018 10 16 N/A
12:15 pm 12:15 Sunny 70 21.1 50 10.1 50 50 SW 5 7 30.07 1018 10 16 N/A
12:35 pm 12:35 Sunny 71 21.6 50 10.2 48 48 SW 6 9 30.07 1018 10 16 N/A
12:55 pm 12:55 Sunny 71 21.7 49 9.3 45 45 WSW 3 6 30.06 1018 10 16 N/A
1:15 pm 13:15 Sunny 72 22 48 8.9 43 43 SW 7 11 30.06 1018 10 16 N/A
1:35 pm 13:35 Sunny 72 22.1 48 9 43 43 WSW 7 11 30.06 1018 10 16 N/A
1:55 pm 13:55 Sunny 73 22.6 49 9.5 43 43 N N/A 30.05 1018 10 16 N/A
2:15 pm 14:15 Sunny 73 22.8 50 10.1 45 45 SW 7 11 30.05 1018 10 16 N/A
2:35 pm 14:35 Sunny 73 22.8 48 8.8 41 41 W 6 9 30.05 1018 10 16 N/A
2:55 pm 14:55 Sunny 74 23.1 49 9.3 42 42 S 6 9 30.04 1017 10 16 N/A
3:15 pm 15:15 Sunny 74 23.6 50 9.9 42 42 SW 9 15 30.04 1017 10 16 N/A
3:35 pm 15:35 Sunny 75 23.7 52 11.3 46 46 S 5 7 30.03 1017 10 16 N/A
3:55 pm 15:55 Sunny 75 23.8 49 9.3 40 40 W 9 15 30.03 1017 10 16 N/A
4:15 pm 16:15 Sunny 75 24 50 9.9 41 41 SSW 8 13 30.03 1017 10 16 N/A
4:35 pm 16:35 Sunny 76 24.4 51 10.4 41 41 WSW 8 13 30.01 1016 10 16 N/A
4:55 pm 16:55 Sunny 76 24.3 49 9.6 39 39 SW 7 11 30.01 1016 10 16 N/A
5:15 pm 17:15 Sunny 76 24.5 50 9.8 39 39 SW 9 15 30.01 1016 10 16 N/A
5:35 pm 17:35 Sunny 76 24.2 48 9.1 38 38 SW 3 6 30.01 1016 10 16 N/A
5:55 pm 17:55 Sunny 76 24.4 50 9.8 40 40 N N/A 30.01 1016 10 16 N/A
6:15 pm 18:15 Sunny 76 24.3 49 9.7 40 40 SW 7 11 30.01 1016 10 16 N/A
6:35 pm 18:35 Sunny 75 24.1 49 9.6 40 40 SSW 8 13 30.02 1016 10 16 N/A
6:55 pm 18:55 Sunny 75 23.9 51 10.3 42 42 WSW 6 9 30.02 1016 10 16 N/A
7:15 pm 19:15 Sunny 74 23.5 52 10.9 45 45 WSW 7 11 30.03 1017 10 16 N/A
7:35 pm 19:35 Sunny 73 22.9 52 11.3 48 48 WSW 6 9 30.03 1017 10 16 N/A
7:55 pm 19:55 Sunny 71 21.8 55 12.7 56 56 W 3 6 30.03 1017 10 16 N/A
8:15 pm 20:15 Sunny 69 20.8 55 12.8 60 60 N N/A 30.04 1017 10 16 N/A
8:35 pm 20:35 Sunny 65 18.1 56 13.4 74 74 N N/A 30.05 1018 10 16 N/A
8:55 pm 20:55 Clear 63 17.1 57 13.7 81 81 N N/A 30.05 1018 10 16 N/A
9:15 pm 21:15 Clear 62 16.6 56 13.2 80 80 N N/A 30.05 1018 7 11 N/A
9:35 pm 21:35 Clear 60 15.5 56 13.4 87 87 N N/A 30.07 1018 10 16 N/A
9:55 pm 21:55 Clear 59 14.8 55 12.5 86 86 N N/A 30.09 1019 10 16 N/A
10:15 pm 22:15 Clear 60 15.6 54 12.2 80 80 N N/A 30.09 1019 10 16 N/A
10:35 pm 22:35 Clear 57 13.7 54 12 90 90 N N/A 30.09 1019 10 16 N/A
10:55 pm 22:55 Clear 56 13.4 53 11.6 89 89 N 3 6 30.10 1019 10 16 N/A
11:15 pm 23:15 Clear 56 13.3 53 11.8 91 91 N N/A 30.10 1019 10 16 N/A
11:35 pm 23:35 Clear 56 13.2 53 11.4 89 89 N N/A 30.11 1020 10 16 N/A
11:55 pm 23:55 Clear 54 12.4 53 11.4 94 94 N N/A 30.10 1019 10 16 N/A

Powered by AerisWeather